Flag for U.S.A. Weather past 2 weeks in Binghamton, New York, U.S.A.

Now
22 °F

Ice fog.


Feels Like: 14 °F
Forecast: 15 / 28 °F
Wind: 6 mph from Southwest

Location: Binghamton Regional Airport

Current Time: Mar 2, 2015 at 12:20:09 AM

Latest Report: Mar 1, 2015 at 11:53 PM


Visibility: 5 mi

Pressure: 30.10 "Hg

Humidity: 96%

Dew point: 21 °F

Location of BinghamtonLocation

Historic Weather in Binghamton — Graph

°F

Binghamton temperature yesterday

Maximum temperature yesterday: 22 °F (at 3:04 PM)
Minimum temperature yesterday: 10 °F (at 1:53 AM)
Average temperature yesterday: 17 °F

Past Weeks' High & Low Weather Summary

 TemperatureHumidityPressure
High31 °F (Feb 22, 3:53 PM)96% (Mar 1, 6:01 PM)30.80 "Hg (Mar 1, 6:01 PM)
Low-9 °F (Feb 20, 1:53 AM)29% (Feb 24, 1:53 PM)29.56 "Hg (Feb 14, 11:03 PM)
Average9 °F68%30.12 "Hg
* Reported Feb 14 10:53 PM — Mar 1 10:53 PM, Binghamton, Weather by CustomWeather, © 2015

Note: Actual official high and low records may vary slightly from our data, if they occured in-between our weather recording intervals... More about our weather records

Advertising

Binghamton weather history for previous 24 hours

 ConditionsComfort  
Time TempWeatherWind HumidityBarometerVisibility
10:53 PM
Sun, Mar 1
22 °FIce fog.7 mph92%30.13 "Hg5 mi
9:53 PM22 °FLight snow. Ice fog.6 mph92%30.15 "Hg3 mi
8:53 PM21 °FIce fog.7 mph96%30.17 "Hg4 mi
7:53 PM22 °FLight snow. Ice fog.6 mph92%30.21 "Hg1 mi
6:53 PM22 °FLight snow. Ice fog.5 mph92%30.22 "Hg1 mi
6:01 PM21 °FLight snow. Ice fog.5 mph96%30.15 "Hg1 mi
4:53 PM22 °FLight snow. Ice fog.9 mph89%30.25 "Hg2 mi
3:53 PM22 °FLight snow. Ice fog.8 mph89%30.29 "Hg1 mi
3:04 PM22 °FLight snow. Ice fog.8 mph85%30.22 "Hg1 mi
1:53 PM21 °FLight snow. Ice fog.9 mph88%30.35 "Hg2 mi
12:53 PM20 °FLight snow. Ice fog.13 mph89%30.39 "Hg1 mi
11:53 AM19 °FLight snow. Ice fog.8 mph85%30.44 "Hg2 mi
11:00 AM19 °FLight snow. Ice fog.8 mph85%30.37 "Hg2 mi
9:53 AM15 °FLight snow. Ice fog.8 mph87%30.49 "Hg1 mi
8:53 AM13 °FSnow. Ice fog.9 mph92%30.51 "Hg1 mi
7:53 AM12 °FLight snow. Ice fog.9 mph88%30.53 "Hg1 mi
6:53 AM11 °FLight snow. Ice fog.7 mph92%30.56 "Hg1 mi
6:01 AM12 °FLight snow. Overcast.6 mph80%30.48 "Hg1 mi
5:53 AM12 °FLight snow. Overcast.7 mph77%30.59 "Hg2 mi
4:53 AM13 °FOvercast.3 mph51%30.59 "Hg10 mi
3:53 AM12 °FMostly cloudy.5 mph53%30.59 "Hg10 mi
2:53 AM11 °FPassing clouds.7 mph53%30.60 "Hg10 mi
1:53 AM10 °FClear.5 mph55%30.64 "Hg10 mi
12:53 AM11 °FClear.5 mph51%30.66 "Hg10 mi
Weather by CustomWeather, © 2015

See weather overviewHow to use our weather pages